Regional Weather Roundup
Issued by NWS Charleston, SC

Current Version | Previous Version | Text Only | Print | Product List | Glossary Off
Versions: 1 2 3 4 5 6 7 8 9 10 11 12 13 14 15 16 17 18 19 20 21 22 23 24 25 26 27 28 29 30 31 32 33 34 35 36 37 38 39 40 41 42 43 44 45 46 47 48 49 50

000
ASUS42 KCHS 230027
RWRCHS

REGIONAL WEATHER ROUNDUP
NATIONAL WEATHER SERVICE CHARLESTON SC
800 PM EDT THU JUN 22 2017

NOTE: "FAIR" INDICATES FEW OR NO CLOUDS BELOW 12,000 FEET WITH NO
SIGNIFICANT WEATHER AND/OR OBSTRUCTIONS TO VISIBILITY.

NOT ALL STATIONS ARE QUALITY CONTROLLED. USE DATA WITH CAUTION...
ESPECIALLY DEWPOINT OBSERVATIONS.

SCZ027-030-031-034>040-042>050-230100-
...SOUTHEAST SOUTH CAROLINA...

CITY           SKY/WX    TMP DP  RH WIND       PRES   REMARKS
N CHARLESTON   CLOUDY    82  76  81 S7        30.08R
6HR MIN TEMP:  82; 6HR MAX TEMP:  89;

WATERFRONT PRK   N/A     82  78  88 S7        30.05S HX  91
JOHNS ISLAND   FAIR      82  77  83 S6        30.08S HX  91
PINOPOLIS      NOT AVBL
MONCKS CORNER  FAIR      72  72 100 CALM      30.08S
SUMMERVILLE    FAIR      73  73 100 CALM      30.09R
BEAUFORT MCAS  CLOUDY    84  79  85 S5        30.06R HX  96
6HR MIN TEMP:  83; 6HR MAX TEMP:  90; 6HR PCP:  0.02;

BEAUFORT ARPT  FAIR      81  75  83 S6        30.07R HAZE
HILTON HEAD IS CLOUDY    82  77  83 S8G14     30.08R HX  91
WALTERBORO     CLOUDY    79  79 100 E5        30.08R
ALLENDALE      FAIR      81  77  89 VRB5      30.05R

...SOUTHERN MIDLANDS AND PEE DEE...

CITY           SKY/WX    TMP DP  RH WIND       PRES   REMARKS
GEORGETOWN     FAIR      77  75  94 CALM      30.09S
KINGSTREE      MOCLDY    77  72  83 S3        30.07F
ORANGEBURG     CLOUDY    80  73  79 E6        30.08R
6HR MIN TEMP:  80; 6HR MAX TEMP:  88;

BARNWELL       FAIR      84  77  79 SE9       30.06R HX  94
AIKEN          FAIR      81  73  78 E3        30.10R
MANNING        LGT RAIN  73  73 100 SE13      30.07F
COLUMBIA       CLOUDY    83  74  74 E10       30.05R
6HR MIN TEMP:  83; 6HR MAX TEMP:  87;

SUMTER         MOCLDY    81  75  83 SE13G20   30.05S
6HR MIN TEMP:  81; 6HR MAX TEMP:  86; 6HR PCP: TRACE;

FLORENCE       CLOUDY    81  76  84 E7        30.06F
6HR MIN TEMP:  81; 6HR MAX TEMP:  87;

MYRTLE BEACH   PTCLDY    81  79  94 S3        30.09
N MYRTLE BEACH CLOUDY    80  77  90 S8        30.08R
6HR MIN TEMP:  79; 6HR MAX TEMP:  82; 6HR PCP:  0.01;


$$

GAZ063-065-086>088-099>101-113>116-118-119-134>141-150-230100-
...SOUTHEAST GEORGIA...

CITY           SKY/WX    TMP DP  RH WIND       PRES   REMARKS
SAVANNAH ARPT  CLOUDY    84  74  71 S10       30.07R HX  91
6HR MIN TEMP:  84; 6HR MAX TEMP:  92;

HUNTER AAF     CLOUDY    83  76  79 S7        30.05R HX  90
6HR MIN TEMP:  83; 6HR MAX TEMP:  88;

FORT STEWART   MOCLDY    83  75  77 SE6       30.04R
6HR MIN TEMP:  79; 6HR MAX TEMP:  91; 6HR PCP:  0.03;

STATESBORO     CLOUDY    83  76  80 S3        30.06R HX  91
SYLVANIA       CLOUDY    83  79  87 CALM      30.07R HX  94
CLAXTON        FAIR     N/A N/A N/A E3        30.06R

...CSRA...CENTRAL AND FAR SOUTHEAST GEORGIA...

CITY           SKY/WX    TMP DP  RH WIND       PRES   REMARKS
THOMSON        CLOUDY    82  75  78 S5        30.08S
AUGUSTA-BUSH   CLOUDY    86  76  71 SE7       30.03R HX  96
6HR MIN TEMP:  86; 6HR MAX TEMP:  93;

AUGUSTA-DANIEL CLOUDY    87  73  62 SE7       30.05R HX  94
SWAINSBORO     FAIR      86  75  70 SE8       30.05R HX  95
VIDALIA        MOCLDY    81  73  78 SE8       30.05R
EASTMAN        FAIR      87  66  50 SE3       30.04F
HAZLEHURST     FAIR      83  76  78 SE5       30.02S HX  91
ALMA           PTCLDY    83  73  72 E9        30.04R
6HR MIN TEMP:  83; 6HR MAX TEMP:  92; 6HR PCP: TRACE;

WAYCROSS       NOT AVBL
JESUP          DRIZZLE   79  73  83 S3        30.05F
BAXLEY         FAIR      81  81 100 SE5       30.03F HX  91
BRUNSWICK      CLOUDY    82  79  89 SE5       30.07S HX  93
SAINT SIMONS   CLOUDY    83  78  85 SE13      30.06R HX  93
6HR MIN TEMP:  83; 6HR MAX TEMP:  88;


$$

SCZ027-028-034-036>038-045-046-048>050-GAZ119-141-230100-
...LAKE AND SUPPLEMENTAL COASTAL OBSERVATIONS...

STATION/POSITION TIME  TEMP    WIND        PRES    WAVE   SWELL
                       AIR SEA DIR/SP/G            HT/PER HT/PER/DIR
                 (UTC) (F)     (DEG/KT/KT) (MB)    (FT/S) (FT/S/D)
WINYAH BAY       2330   80     190/  5     1018.0S
LAKE MURRAY      2350   80      70/  4/  9 1016.9R
ACE BASIN NERRS  2345   82        CALM     1018.0S
FORT PULASKI     0000   82 84  190/  6/ 10 1018.7
SAPELO ISLAND    0000   83     170/ 10     1018.0

$$

ANZ835-935-AMZ111-154-330-350-352-354-370-450-454-472-230100-
...C-MAN AND BUOY OBSERVATIONS...

STATION/POSITION TIME  TEMP    WIND        PRES    WAVE   SWELL
                       AIR SEA DIR/SP/G            HT/PER HT/PER/DIR
                 (UTC) (F)     (DEG/KT/KT) (MB)    (FT/S) (FT/S/D)
BUOY 41004       0010   81 81  190/ 10/ 12 1018.0
BUOY 41008       2350   81 82  160/ 12/ 16 1017.5R   3/ 8   2/110/ 8
FOLLY BEACH CMAN 0000   82     190/ 10/ 11 1019.2R
CAPERS NEARSHORE 0008   86 83  200/ 12/ 17 1018.1R
FRIPP NEARSHORE  0008   82 83  180/ 12/ 14 1017.9R


STATION/POSITION TIME  TEMP    WIND        PRES    WAVE   SWELL
                       AIR SEA DIR/SP/G            HT/PER HT/PER/DIR
                 (UTC) (F)     (DEG/KT/KT) (MB)    (FT/S) (FT/S/D)
5E ST. MARYS GA  0000      81                N/A     4/ 8
FRYING PAN BUOY  0010   82 82  220/  8/ 10 1018.5
BUOY 41025       2350   80 81  240/ 16/ 17 1017.2F   3/ 8   2/150/ 8
CAPE LOOKOUT NC  0000   79     200/  6/  7 1017.3F
BUOY 41002       2350   81 82  220/  8/ 10 1020.0R   4/ 9   5/100/ 9
BUOY 41010       0010   82 83  120/ 10/ 12 1018.9
ST AUGUSTINE FL  0000   79 79  150/ 14/ 16 1018.2R


$$



USA.gov is the U.S. government's official web portal to all federal, state and local government web resources and services.